{"data":{"norad_id":64582,"epoch":"2026-09-21T21:27:43.284672Z","epoch_age_seconds":57078,"freshness":"FRESH","line1":"1 64582U 25135BG  26264.89425098  .00000848  00000+0  89304-4 0  9993","line2":"2 64582  97.7806  17.9538 0001997  64.4105 295.7320 14.91966682 68311","mean_motion":14.91966682,"eccentricity":0.0001997,"inclination_deg":97.7806,"raan_deg":17.9538,"arg_perigee_deg":64.4105,"mean_anomaly_deg":295.732,"bstar":8.9304e-5,"rev_number":6831,"period_min":96.516900636793,"perigee_km":590.41193656575,"apogee_km":593.19573093475,"semimajor_km":6969.9408337502,"source":"CELESTRAK","updated_at":"2026-09-22T09:00:29.854357Z"}}